{"data":{"norad_id":41859,"intl_designator":"2016-069A","name":"GSAT0207 (GALILEO 15)","alt_names":[],"object_type":"PAYLOAD","status":"ACTIVE","operator":null,"country":"ESA","launch_date":"2016-11-17","launch_site_code":"FRGUI","launch_vehicle":null,"mission":null,"orbit_class":"UNKNOWN","rcs_meters":18.3608,"size_class":null,"mass_kg":null,"dimensions":null,"purposes":["earth_obs","nav"],"wikipedia_slug":null,"has_3d_model":false,"image_url":null,"decayed_at":null,"tle_current":{"epoch":"2026-09-19T18:32:24.902880Z","epoch_age_seconds":77341,"freshness":"FRESH","line1":"1 41859U 16069A   26262.77251045  .00000026  00000+0  00000+0 0  9994","line2":"2 41859  55.5593  98.4673 0002822   1.3168 358.7589  1.70474001 61018","mean_motion":1.70474001,"eccentricity":0.0002822,"inclination_deg":55.5593,"raan_deg":98.4673,"arg_perigee_deg":1.3168,"mean_anomaly_deg":358.7589,"bstar":0,"rev_number":6101,"period_min":844.70358620843,"perigee_km":23213.829731521,"apogee_km":23230.536152096,"semimajor_km":29600.319941808,"source":"CELESTRAK","updated_at":"2026-09-20T09:00:46.494754Z"}}}